Weather Roundup
Issued by NWS

Home | Current Version | Previous Version | Text Only | Print | Product List | Glossary On
Versions: 1 2 3 4 5 6 7 8 9 10 11 12 13 14 15 16 17 18 19 20 21 22 23 24 25 26 27 28 29 30 31 32 33 34 35 36 37 38 39 40 41 42 43 44 45 46 47 48 49 50
000
NZUS93 KARX 281259
HRRWXR

CURRENT HOURLY OBSERVATIONS ACROSS
MUCH OF THE UPPER MISSISSIPPI VALLEY
NATIONAL WEATHER SERVICE LA CROSSE WI
800 AM CDT FRI JUL 28 2017


...SOUTHEAST MINNESOTA...


CITY           SKY/WX    TMP DP  RH WIND       PRES   REMARKS
ROCHESTER      SUNNY     67  63  87 NE7       30.09R
ROCHESTER/MAYO FAIR      66  62  85 CALM      30.09R
WINONA         SUNNY     68  64  88 CALM      30.08R
AUSTIN         SUNNY     66  63  88 CALM      30.08R
ALBERT LEA     MOSUNNY   70  64  83 CALM      30.09R
DODGE CENTER   SUNNY     64  61  88 NE3       30.09S
PRESTON        SUNNY     65  61  87 NE5       30.09R
OWATONNA       SUNNY     66  63  88 NE5       30.09R
FARIBAULT      SUNNY     66  63  88 NE3       30.09S
$$

...ELSEWHERE IN MINNESOTA...


CITY           SKY/WX    TMP DP  RH WIND       PRES   REMARKS
MINNEAPOLIS    SUNNY     70  60  70 VRB5      30.09R
INTNL FALLS    SUNNY     63  59  87 CALM      30.12R
DULUTH         SUNNY     63  57  81 MISG      30.15R
RED WING       SUNNY     66  61  82 CALM      30.08R
REDWOOD FALLS  CLOUDY    67  61  81 E6        30.09R
MANKATO        SUNNY     70  64  81 MISG      30.09R
WORTHINGTON    MOSUNNY   63  60  90 CALM      30.12R
FAIRMONT       CLOUDY    69  64  84 NE5       30.10R
$$

...SOUTHWEST WISCONSIN...


CITY           SKY/WX    TMP DP  RH WIND       PRES   REMARKS
LA CROSSE      SUNNY     70  64  81 SE5       30.07R
PRAIRIE DU CHI PTSUNNY   64  63  97 CALM      30.06R FOG
BOSCOBEL       MOSUNNY   68  64  87 NE5       30.07R
LONE ROCK      NOT AVBL
PLATTEVILLE    SUNNY     65  60  82 NE7       30.05S
FORT MC COY    SUNNY     65  59  80 E8        30.09S
MAUSTON-NEW LI SUNNY     64  59  85 CALM      30.09R
VIROQUA        FAIR      66  63  89 E6        30.09R
WIS DELLS      SUNNY     63  55  76 NE6       30.08R
$$

...ELSEWHERE IN WISCONSIN...


CITY           SKY/WX    TMP DP  RH WIND       PRES   REMARKS
MILWAUKEE      PTSUNNY   68  64  87 N15       30.02R
MADISON        MOSUNNY   66  59  78 N12       30.05S
GREEN BAY      SUNNY     63  58  83 N7        30.08R
EAU CLAIRE     NOT AVBL
BLACK RVR FLS  FAIR      65  63  91 NE5       30.09R
MEDFORD        SUNNY     59  54  84 E5        30.12S
WAUSAU         SUNNY     64  53  67 NE8       30.10S
WIS RAPIDS     SUNNY     67  55  65 NE6       30.11R
MARSHFIELD     SUNNY     65  56  72 NE7       30.10S
RICE LAKE      SUNNY     62  59  90 CALM      30.14R
$$

...NORTHEAST IOWA...


CITY           SKY/WX    TMP DP  RH WIND       PRES   REMARKS
WATERLOO       SUNNY     69  64  84 CALM      30.05R
DUBUQUE        MOSUNNY   63  59  87 NE10      30.05R
DECORAH        SUNNY     68  64  88 CALM      30.06S
MASON CITY     SUNNY     67  62  84 CALM      30.09R
CHARLES CITY   SUNNY     68  66  94 E5        30.07R
OELWEIN        SUNNY     68  63  83 E5        30.06S
$$

...ELSEWHERE IN IOWA...


CITY           SKY/WX    TMP DP  RH WIND       PRES   REMARKS
DES MOINES     MOSUNNY   73  63  70 NE7       30.04R
IOWA CITY      SUNNY     71  59  65 NE6       30.04R
FORT DODGE     SUNNY     66  61  82 CALM      30.08R
MARSHALLTOWN   SUNNY     68  65  90 CALM      30.05R
CEDAR RAPIDS   NOT AVBL
$$

...NORTHERN ILLINOIS...


CITY           SKY/WX    TMP DP  RH WIND       PRES   REMARKS
CHICAGO-OHARE  PTSUNNY   72  64  76 NE14      29.98R
CHICAGO-MIDWAY PTSUNNY   74  63  68 N20       29.97R
MOLINE         SUNNY     71  58  63 NE5       30.00R
ROCKFORD       PTSUNNY   69  58  67 NE14      30.03R
PEORIA         SUNNY     68  61  78 NE8       29.97R
$$

NOTE: "FAIR" INDICATES FEW OR NO CLOUDS BELOW 12,000 FEET WITH NO
SIGNIFICANT WEATHER AND/OR OBSTRUCTIONS TO VISIBILITY. WIND
SPEEDS ARE IN MILES-PER-HOUR.




USA.gov is the U.S. government's official web portal to all federal, state and local government web resources and services.